Regional Weather Roundup
Issued by NWS Wakefield, VA

Home | Current Version | Previous Version | Text Only | Print | Product List | Glossary On
Versions: 1 2 3 4 5 6 7 8 9 10 11 12 13 14 15 16 17 18 19 20 21 22 23 24 25 26 27 28 29 30 31 32 33 34 35 36 37 38 39 40 41 42 43 44 45 46 47 48 49 50
000
ASUS41 KAKQ 072215
RWRAKQ

REGIONAL WEATHER ROUNDUP
NATIONAL WEATHER SERVICE WAKEFIELD VA
600 PM EDT TUE JUL 07 2015

Note: "fair" indicates few or no clouds below 12,000 feet with no
significant weather and/or obstructions to visibility. * = Denotes
station may not report precipitation (e.g., rain,snow,etc.),
thunder or fog.

VAZ042-051-052>054-056-072300-
NORTHERN VIRGINIA

CITY           SKY/WX    TMP DP  RH WIND       PRES   REMARKS
WASH NATIONAL  MOSUNNY   90  67  46 SW14      29.99S
DULLES         MOSUNNY   86  68  54 S10       29.99F
FORT BELVOIR   SUNNY     87  70  56 S8        29.99F
QUANTICO       SUNNY     87  71  58 SW9       29.99F
FREDERICKSBRG* SUNNY     91  71  52 S7        29.99F HX  96
STAFFORD*      SUNNY     85  68  56 SW7       30.04S
WARRENTON      SUNNY     87  73  63 S7        30.00S
CULPEPER*      SUNNY     86  70  59 S9        30.00F
MANASSAS*      SUNNY     88  70  55 SW6       30.00S
LEESBURG*      SUNNY     88  72  58 S12G20    30.00S
WINCHESTER     SUNNY     88  68  51 S12       29.99F
FRONT ROYAL*   FAIR      86  72  62 S3        29.99F
LURAY*         FAIR      90  68  48 S9G16     30.01S
$$

VAZ048-049-060>072-079>083-072300-
CENTRAL AND SOUTH CENTRAL VIRGINIA

CITY           SKY/WX    TMP DP  RH WIND       PRES   REMARKS
RICHMOND       MOSUNNY   88  70  55 SW8       30.02F
CHESTERFIELD*  NOT AVBL
PETERSBURG*    SUNNY     88  76  65 SW6       30.04F HX  99
HANOVER        SUNNY     88  67  49 SW13      30.03F
TAPPAHANNOCK*  SUNNY     87  65  47 S6        30.02F
QUINTON*       NOT AVBL
CHARLOTTSVILLE SUNNY     86  68  54 SW10G20   30.02S
GORDONSVILLE*  FAIR      86  70  58 S10G17    30.01S
ORANGE*        SUNNY     88  70  55 S9        30.03S
LOUISA*        SUNNY     88  70  55 SW7       30.01F
BUMPASS*       FAIR      86  71  60 SW5       30.02F
FARMVILLE*     SUNNY     87  69  54 SW9       30.03S
CREWE*         FAIR      87  70  57 CALM      30.04F
FORT PICKETT*  FAIR      87  72  61 SW7       30.05F
CHASE CITY*    FAIR      89  73  59 CALM      30.06S HX  97
CLARKSVILLE*   FAIR      88  72  58 SW5       30.05S
SOUTH HILL*    SUNNY     85  74  70 S3        30.11F
LAWRENCEVILLE* NOT AVBL
EMPORIA*         N/A     82  70  65 S3        30.06F
$$

VAZ088>098-072300-
SOUTHEAST VIRGINIA

CITY           SKY/WX    TMP DP  RH WIND       PRES   REMARKS
NORFOLK        MOSUNNY   86  71  60 SW14      30.03F
VIRGINIA BEACH PTSUNNY   90  72  55 SW13      30.03F HX  97
NORFOLK NAVAL  PTSUNNY   86  73  65 S7        30.04F
WEST POINT*    SUNNY     91  69  49 S7        30.04F HX  95
SALUDA*        FAIR      88  71  58 SW3       30.02F
NEWPORT NEWS   SUNNY     87  72  60 SW10      30.03F
LANGLEY AFB    MOSUNNY   89  73  60 SW13      30.01F HX  96
FORT EUSTIS    MOSUNNY   87  84  90 SW5       30.01F HX 110
WILLIAMSBURG*  SUNNY     91  75  59 SW7       30.04S HX 102
HR EXEC AP*    FAIR      82  75  78 S3        30.06S
FRANKLIN*      MOSUNNY   87  74  66 SW6       30.04F
WAKEFIELD      MOSUNNY   89  74  60 SW3       30.04S HX  98
$$

VAZ020-022-025-037-045-072300-
WEST CENTRAL AND SOUTHWEST VIRGINIA

CITY           SKY/WX    TMP DP  RH WIND       PRES   REMARKS
STAUNTON*      SUNNY     88  67  49 S13       30.06S
WAYNESBORO*    FAIR      84  65  53 SW5       30.06F
HOT SPRINGS VA MOSUNNY   76  63  64 S7        30.19F
LYNCHBURG      SUNNY     85  69  58 SW9       30.07F
DANVILLE       SUNNY     88  71  57 S6        30.05F
SOUTH BOSTON*  FAIR      87  71  59 MISG      30.05S
MARTINSVILLE   SUNNY     88  67  49 SW3       30.09F
ROANOKE        PTSUNNY   85  67  54 S10       30.08S
BLACKSBURG     PTSUNNY   82  69  64 SW5       30.15S
DUBLIN*        MOSUNNY   84  67  56 SW9       30.13F
MARION*        SUNNY     81  65  58 W9        30.19S
HILLSVILLE*    LGT RAIN  73  68  85 NW6       30.16S
RICHLANDS*     LGT RAIN  76  69  79 SW6       30.17S
WISE*          PTSUNNY   81  64  57 SW13G18   30.17S
ABINGDON*      MOSUNNY   83  66  56 W7        30.14S
$$

MDZ021>025-VAZ099-100-072300-
SOUTHERN MARYLAND AND THE DELMARVA PENINSULA

CITY           SKY/WX    TMP DP  RH WIND       PRES   REMARKS
PATUXENT RIVER MOSUNNY   87  68  52 SW9       30.00F
BAY BRIDGE APT   N/A     86  66  51 SW7       29.98F
LEONARDTOWN    SUNNY     86  66  51 SW7       30.01F
DOVER          SUNNY     87  70  56 SW12      29.97S
GEORGETOWN     MOSUNNY   86  71  60 SW10      30.01S
EASTON         MOSUNNY   90  72  55 SW10      30.03S HX  96
CAMBRIDGE      MOSUNNY   88  68  51 SW5       29.99F
SALISBURY      SUNNY     86  71  60 SW10      30.01S
OCEAN CITY     SUNNY     83  75  77 S9        30.01F
WALLOPS ISLAND SUNNY     84  77  79 S15       30.02F
ACCOMACK*        N/A     88  73  62 SW10      30.02  HX  96
$$

NCZ012>017-030>032-072300-
NORTH CENTRAL AND EASTERN NORTH CAROLINA

CITY           SKY/WX    TMP DP  RH WIND       PRES   REMARKS
ROANOKE RAPIDS FAIR      84  72  65 CALM      30.05F
RALEIGH        MOSUNNY   89  71  55 SW12      30.06F HX  95
ELIZABETH CITY SUNNY     89  72  56 S12       30.05F HX  96
AHOSKIE*       MOSUNNY   88  75  64 CALM      30.04F HX  97
EDENTON*         N/A     89  73  58 S10       30.06F HX  97
CURRITUCK*     SUNNY     90  69  50 S5        30.06S
KILL DEVIL HLS SUNNY     89  75  63 S7        30.06F HX  99
MANTEO         SUNNY     87  75  68 S17       30.08S HX  96
CAPE HATTERAS  SUNNY     81  75  82 SW10      30.11F
TARBORO*         N/A     92  70  47 SW6       30.05F HX  98
GOLDSBORO      MOSUNNY   92  70  48 S8        30.04F HX  97
WASHINGTON     MOSUNNY   87  74  64 S8        30.07S HX  96
GREENVILLE     SUNNY     90  72  55 SW8       30.07F HX  96
NEW BERN       SUNNY     85  73  67 SW10G22   30.10S
WILMINGTON     SUNNY     86  71  60 S13       30.10F
$$

VAZ048-072300-
ELSEWHERE

CITY           SKY/WX    TMP DP  RH WIND       PRES   REMARKS
HARRISBURG PA  MOSUNNY   86  67  52 S6        29.95F
BALTIMORE      MOSUNNY   87  67  51 SW6       29.97F
ANNAPOLIS      SUNNY     86  69  56 S7        29.98S
ANDREWS AFB    SUNNY     86  69  55 SW12      29.99F
PHILADELPHIA   MOSUNNY   89  67  47 SW14      29.96S
HENDERSON NC   MOSUNNY   86  68  53 S6        30.07S
GREENSBORO     PTSUNNY   88  66  48 SW6       30.07S
ROCKY MOUNT    MOSUNNY   92  69  47 S9        30.05F HX  97
$$

VAZ100-072300-
MARINE

STATION/POSITION TIME  TEMP    WIND        PRES    WAVE   SWELL
                       AIR SEA DIR/SP/G            HT/PER HT/PER
                 (UTC) (F)     (DEG/KT/KT) (MB)    (FT/S) (FT/S)
BRANDYWINE LGT   2100   85 75  240/ 18/ 19 1015.6F
CAPE MAY NJ      2100   82 80  170/  6/  8 1015.3F
LEWES DE         2100   88 75  240/ 11/ 15 1015.6F
15NM E FENWICK I 2150   78 76              1015.9F   4/ 5
OCEAN-CITY-INLET 2100   77 73  200/ 12/ 16 1016.3F
WACHAPREAGUE VA  2100   86 87  210/ 10/ 12 1017.0F
GOOSES REEF MD   2200   85 82  230/  6/  8 1016.6F
COVE POINT MD    2100   86     240/ 11/ 17 1016.7F
SOLOMONS ISLAND  2100      81                N/A
BISHOPS HEAD MD  2100   85     200/ 14/ 16 1016.0F
PINEY POINT MD   2100          250/  5/  7   N/A
CAMBRIDGE MD     2100   87 80  230/ 11/ 15 1015.8F
LEWISETTA VA     2100   87 85  240/ 10/ 13 1016.1F
RAPPAHANNOCK LGT 2100          180/  8/  9 1017.5F
STINGRAY PT      2200   87 82  250/ 10/ 12 1016.5F   1/ 2
YORK RVR RNG VA  2100   87     240/ 11/ 12 1016.4F
YORKTOWN VA      2100   88 80  250/  9/ 12 1016.7F
JAMESTOWN VA     2200   87 84  210/  6/  8   N/A
DOMINION TERM VA 2100   89     250/  8/ 10 1017.0F
KIPTOPEKE VA     2100      85  210/  6/  9   N/A
CHES BAY BRIDGE  2100   86 75  290/  2/  5 1016.8F
CAPE HENRY VA    2100   84      CALM  /  1   N/A
CHESAPEAKE LGHT  2100   81     170/ 16/ 17 1017.8F
WILLOUBY STN VA  2100   86     260/  9/  9 1018.1F
CAPE HENRY BUOY  2128      80                N/A     3/ 9
1ST LANDING BUOY 2200      81              1016.7F
CAPE CHARLES BUO 2126      80                N/A     2/13   2/13
OFFSHORE WE BUOY 2111      78                N/A     3/ 9   2/13
64NM E OF VA BCH 2150   79 78  200/ 16/ 17 1017.8F   3/ 9   2/ 9
DUCK PIER NC     2100   88 74  210/ 10/ 12   N/A
44100 DUCK FRF   2124      80                N/A     3/ 9
44056 DUCK FRF   2111      77                N/A     2/ 8   2/13
OREGON INLET NC  2100   82 85  190/ 19/ 21 1018.8F
HATTERAS NC      2100   82 81  200/ 11/ 15 1019.5F
DIAMOND SHLS NC  2150   82 83  220/ 17/ 19 1019.5S   3/ 9   2/ 9
CAPE LOOKOUT NC  2200   83     200/ 11/ 14 1019.5F
$$


USA.gov is the U.S. government's official web portal to all federal, state and local government web resources and services.